AirNav   Air Wisconsin pilot careers
 
 378 users online  

2PS3 Mathna Airport
York Springs, Pennsylvania, USA

GOING TO YORK SPRINGS?


FAA INFORMATION EFFECTIVE 19 JULY 2018

Location

FAA Identifier: 2PS3
Lat/Long: 40-01-00.3400N / 077-02-28.9230W
40-01.005667N / 077-02.482050W
40.0167611 / -77.0413675
(estimated)
Elevation: 490 ft. / 149 m (estimated)
Variation: 10W (1980)
From city: 3 miles E of YORK SPRINGS, PA
Time zone: UTC -4 (UTC -5 during Standard Time)
Zip code: 17372

Airport Operations

Airport use: Private use. Permission required prior to landing
Activation date: 12/1986
Control tower: no
ARTCC: NEW YORK CENTER
FSS: WILLIAMSPORT FLIGHT SERVICE STATION
Attendance: UNATNDD
Wind indicator: yes
Segmented circle: no

Airport Communications

WX ASOS at THV (10 nm SE): 119.275 (717-792-5529)
WX ASOS at CXY (15 nm NE): PHONE 717-770-0880
WX ASOS at MDT (17 nm NE): PHONE 717-944-1372

Nearby radio navigation aids

VOR radial/distance  VOR name  Freq  Var
HARr186/17.2HARRISBURG VORTAC112.5010W
EMIr003/31.4WESTMINSTER VORTAC117.9008W
LRPr269/35.0LANCASTER VOR/DME117.3009W
RAVr223/38.0RAVINE VORTAC114.6011W
FDKr031/(39.4)FREDERICK VOR109.0008W

 
NDB name  Hdg/Dist  Freq  Var  ID
LATLE201/9.821911WCX -.-. -..-
BELLGROVE232/33.732810WBZJ -... --.. .---

Airport Services

Runway Information

Runway 6/24

Dimensions: 1800 x 100 ft. / 549 x 30 m
Surface: turf
Runway edge markings: RY 06/24 MKD WITH ORANGE CONES.
RUNWAY 6  RUNWAY 24
Traffic pattern: leftleft
Obstructions: 22 ft. tree, 227 ft. from runway
06/24 VILLAGE 2500' FM EAST END OF RWY.
none

Airport Ownership and Management from official FAA records

Ownership: Privately-owned
Owner: GARY G. MATHNA
495 PONDTOWN RD
DILLSBURG, PA 17019
Phone (717) 432-7389
Manager: GARY G. MATHNA
495 PONDTOWN ROAD
DILLSBURG, PA 17019
Phone (717) 432-7389

Airport Operational Statistics

Aircraft based on the field: 1
Single engine airplanes: 1
    

Instrument Procedures

There are no published instrument procedures at 2PS3.

Some nearby airports with instrument procedures:

KTHV - York Airport (10 nm SE)
N94 - Carlisle Airport (12 nm NW)
KCXY - Capital City Airport (15 nm NE)
W05 - Gettysburg Regional Airport (15 nm SW)
KMDT - Harrisburg International Airport (17 nm NE)
 
Loc | Ops | Rwys | IFR | FBO | Links
Com | Nav | Svcs | Stats | Notes


 
Area around 2PS3 (Mathna Airport)
 
Road maps at: MapQuest Bing Google
 
Aerial photo
No photo
 
Sectional chart

 
Airport distance calculator
Flying to Mathna Airport? Find the distance to fly.

From to 2PS3

Sunrise and sunset
Times for 16-Aug-2018
 Local
(UTC-4)
 Zulu
(UTC)
Morning civil twilight05:5309:53
Sunrise06:2210:22
Sunset20:0300:03
Evening civil twilight20:3200:32

Current date and time
Zulu (UTC)  16-Aug-2018 08:16:54
Local (UTC-4)  16-Aug-2018 04:16:54
 
METAR
KTHV 
9nm SE 
160753Z AUTO 00000KT 9SM CLR 21/19 A3006 RMK AO2 SLP176 T02060189
KCXY 
15nm NE 
160756Z AUTO 30003KT 8SM CLR 24/19 A3004 RMK AO2 SLP171 T02390189
KMDT 
17nm NE 
160756Z 00000KT 7SM BKN250 22/20 A3004 RMK AO2 SLP169 T02170200
TAF
KMDT 
17nm NE 
160533Z 1606/1706 VRB03KT P6SM SCT250 FM161400 23007KT P6SM SCT100 BKN250
NOTAMs
Click for the latest NOTAMs
NOTAMs are issued by the DoD/FAA and will open in a separate window not controlled by AirNav.

 

 
 

Would you like to see your business listed on this page?

 If your business provides an interesting product or service to pilots, flight crews, aircraft, or users of the Mathna Airport, you should consider listing it here.  To start the listing process, click on the button below
 
Add a business
 

Other Pages about Mathna Airport

Update a link
 
Copyright © AirNav, LLC. All rights reserved. Privacy Policy  Contact